Гэцзю

Китай     23°22′04″N   103°09′06″E
темп.,
°C
ветер,
м/с
пор.,
м/с
влажн.,
%
обл.,
%
осадки,
мм/ч
давл.,
гПа
погр.,
м
6 марта, сб
сб623:00+13юз23490 0.0 101382
02:00+12ююз23630 0.0 101451
05:00+11ююз126532 0.0 101422
08:00+11зюз126147 0.0 101622
11:00+18юз3535100 0.0 10171169
14:00+21юз483081 0.0 10122573
17:00+21юз58302 0.0 10103015
20:00+15ю224428 0.0 101327
7 марта, вс
вс723:00+13юв12578 0.0 101623
02:00+12ю117634 0.0 101622
05:00+10ю12870 0.0 101624
08:00+10юв11960 0.1 101738
11:00+15ю44753 0.3 1017514
14:00+19ю58512 0.5 10131854
17:00+19ю6104566 0.1 10092075
20:00+13ююв238063 0.1 101369
8 марта, пн
пн823:00+11ююв349944 0.2 1016112
02:00+12ююв349665 0.4 1016262
05:00+11ю3497100 0.0 1015240
08:00+11ю3496100 0.1 1017236
11:00+14ю4584100 0.0 1017399
14:00+19ю465764 0.1 10121258
17:00+21ююз6103928 0.1 10102656
20:00+14юв238447 0.2 101268
9 марта, вт
вт923:00+12ююв241001 0.0 1015105
02:00+13ю349649 0.1 1015255
05:00+13ю3496100 0.0 1015253
08:00+13ю4596100 0.1 1017321
11:00+15ю458399 0.1 1017511
14:00+20ю5115069 0.5 10122105
17:00+21ююз7123727 0.1 10102775
20:00+14ююв338641 0.1 101286
10 марта, ср
ср1023:00+13ю239923 0.3 101582
02:00+12ю249941 0.6 1015116
05:00+13ю349899 0.3 1014173
08:00+13ю3497100 0.4 1016205
11:00+16ю348499 0.3 1016407
14:00+20ю485360 0.6 10121784
17:00+22юз6103358 0.1 10102851
20:00+15юв237566 0.2 101258